Regional Weather Roundup
Issued by NWS

Home | Current Version | Previous Version | Graphics & Text | Print | Product List | Glossary On
Versions: 1 2 3 4 5 6 7 8 9 10 11 12 13 14 15 16 17 18 19 20 21 22 23 24 25 26 27 28 29 30 31 32 33 34 35 36 37 38 39 40 41 42 43 44 45 46 47 48 49 50
000
ASUS45 KCYS 260510
RWRWY

WYOMING REGIONAL WEATHER ROUNDUP
NATIONAL WEATHER SERVICE CHEYENNE WY
1100 PM MDT SUN SEP 25 2016

NOTE:  "FAIR" INDICATES FEW OR NO CLOUDS BELOW 12,000 FEET
WITH NO SIGNIFICANT WEATHER AND/OR OBSTRUCTIONS TO VISIBILITY.

WYZ001-260600-
YELLOWSTONE NATIONAL PARK

CITY           SKY/WX    TMP DP  RH WIND       PRES   REMARKS
LK YELLOWSTONE   N/A     35  33  92 CALM      30.59R
W YELLOWSTONE  NOT AVBL

$$
WYZ002>013-054>058-071-098>099-260600-
NORTHERN WYOMING

CITY           SKY/WX    TMP DP  RH WIND       PRES   REMARKS
JACKSON        FAIR      39  37  93 CALM      30.52S
CODY           FAIR      45  43  93 CALM      30.42F
GREYBULL       FAIR      50  44  80 SE5       30.37S
WORLAND        FAIR      46  41  82 CALM      30.38S
SHERIDAN       FAIR      43  39  86 S5        30.35R
BUFFALO        FAIR      47  39  74 CALM      30.38F
GILLETTE       FAIR      43  39  86 S3        30.36S
HULETT         FAIR      43  36  75 S8        30.36S
NEWCASTLE      FAIR      43  34  70 CALM      30.37S

$$
WYZ014>020-022>026-101>103-260600-
CENTRAL WYOMING

CITY           SKY/WX    TMP DP  RH WIND       PRES   REMARKS
BIG PINEY      FAIR      43  35  73 E3        30.51S
PINEDALE       FAIR      45  34  65 NW14      30.48F
DUBOIS         FAIR      46  32  57 W9        30.50S
LANDER         FAIR      49  40  71 CALM      30.42S
RIVERTON       FAIR      47  39  74 N3        30.42S
CASPER         FAIR      45  38  76 W9        30.41S
DOUGLAS        FAIR      43  37  79 CALM      30.41S

$$
WYZ021-027>030-104>119-260600-
SOUTHERN WYOMING

CITY           SKY/WX    TMP DP  RH WIND       PRES   REMARKS
EVANSTON       FAIR      51  31  46 E5        30.54S
FORT BRIDGER   FAIR      50  35  56 W10       30.55S
ROCK SPRINGS   FAIR      50  35  56 SW14      30.48S
DIXON          FAIR      42  35  77 E6        30.55R
RAWLINS        FAIR      41  32  70 CALM      30.49F
SARATOGA       FAIR      36  32  87 E5        30.53S WCI  32
LARAMIE        FAIR      39  33  79 S8        30.51S WCI  33
CHEYENNE       FAIR      46  32  58 NW3       30.47S
TORRINGTON     FAIR      48  40  73 W3        30.39R
PINE BLUFFS    FAIR      39  32  75 S3        30.45S

$$



USA.gov is the U.S. government's official web portal to all federal, state and local government web resources and services.